Weather History for Nebraska City, NE

Change the Weather History Date:

Sunday, May 4, 2014

  Actual Average (KSDA) Record (KSDA)
Temperature  
Mean Temperature 61 °F -  
Max Temperature 72 °F 71 °F 92 °F (1950)
Min Temperature 50 °F 47 °F 30 °F (1954)
Degree Days  
Heating Degree Days 4    
Growing Degree Days 11 (Base 50)    
Moisture  
Dew Point 42 °F    
Average Humidity 50    
Maximum Humidity 69    
Minimum Humidity 36    
Precipitation  
Precipitation 0.00 in - - ()
Sea Level Pressure  
Sea Level Pressure 29.86 in    
Wind  
Wind Speed 12 mph (East)    
Max Wind Speed 24 mph    
Max Gust Speed 33 mph    
Visibility 10 miles    
Events      
Averages and records for this station are not official NWS values.
T = Trace of Precipitation, MM = Missing Value Source: NWS Daily Summary

Daily Weather History Graph

Daily Weather History Graph

Search for Another Location

Airport:

Trip Planner

Search our weather history database for the weather conditions in past years. The results will help you decide how hot, cold, wet, or windy it might be!

Date:

Astronomy

May. 04, 2014 Rise Set
Actual Time 6:18 AM CDT 8:22 PM CDT
Civil Twilight 5:48 AM CDT 8:52 PM CDT
Nautical Twilight 5:12 AM CDT 9:29 PM CDT
Astronomical Twilight 4:32 AM CDT 10:09 PM CDT
Moon 10:43 AM CDT (5/4) 12:28 AM CDT (5/4)
Length of Visible Light 15h 03m
Length of Day
14h 04m
Waxing Crescent, 28% of the Moon is Illuminated
May 4
Waxing Crescent
May 6
First Quarter
May 14
Full
May 21
Last Quarter
May 28
New

Hourly Weather History & Observations

Time (CDT) Temp. Dew Point Humidity Pressure Visibility Wind Dir Wind Speed Gust Speed Precip Events Conditions
12:15 AM 56.8 °F 41.7 °F 57% 29.92 in 10.0 mi East 5.8 mph - N/A   Clear
12:35 AM 56.8 °F 41.4 °F 56% 29.90 in 10.0 mi East 5.8 mph - N/A   Clear
12:55 AM 56.8 °F 41.4 °F 56% 29.90 in 10.0 mi East 8.1 mph - N/A   Clear
1:15 AM 56.3 °F 41.2 °F 57% 29.92 in 10.0 mi East 5.8 mph - N/A   Clear
1:35 AM 54.9 °F 41.5 °F 61% 29.93 in 10.0 mi NE 6.9 mph - N/A   Clear
1:55 AM 54.9 °F 41.9 °F 62% 29.93 in 10.0 mi ENE 6.9 mph - N/A   Clear
2:15 AM 54.5 °F 42.1 °F 63% 29.92 in 10.0 mi ENE 8.1 mph - N/A   Clear
2:35 AM 52.5 °F 42.3 °F 68% 29.92 in 10.0 mi ENE 6.9 mph - N/A   Clear
2:55 AM 54.3 °F 43.0 °F 66% 29.90 in 10.0 mi East 9.2 mph - N/A   Clear
3:15 AM 54.0 °F 42.8 °F 66% 29.91 in 10.0 mi NE 6.9 mph - N/A   Clear
3:35 AM 53.4 °F 42.8 °F 67% 29.92 in 10.0 mi ENE 9.2 mph - N/A   Clear
3:55 AM 54.1 °F 42.8 °F 66% 29.91 in 10.0 mi East 9.2 mph - N/A   Clear
4:15 AM 53.6 °F 42.6 °F 66% 29.90 in 10.0 mi East 8.1 mph - N/A   Clear
4:35 AM 53.4 °F 42.4 °F 66% 29.91 in 10.0 mi ENE 9.2 mph - N/A   Clear
4:55 AM 52.7 °F 42.3 °F 68% 29.91 in 10.0 mi ENE 10.4 mph - N/A   Clear
5:15 AM 52.2 °F 42.1 °F 69% 29.91 in 10.0 mi ENE 10.4 mph - N/A   Clear
5:35 AM 52.9 °F 40.3 °F 62% 29.90 in 10.0 mi ENE 13.8 mph 17.3 mph N/A   Clear
5:55 AM 52.3 °F 40.1 °F 63% 29.90 in 10.0 mi ENE 10.4 mph - N/A   Clear
6:15 AM 52.5 °F 39.6 °F 61% 29.91 in 10.0 mi ENE 13.8 mph - N/A   Clear
6:35 AM 51.1 °F 39.7 °F 65% 29.92 in 10.0 mi NE 9.2 mph - N/A   Clear
6:55 AM 50.5 °F 40.3 °F 68% 29.92 in 10.0 mi ENE 9.2 mph - N/A   Clear
7:15 AM 52.2 °F 39.4 °F 62% 29.89 in 10.0 mi East 16.1 mph 21.9 mph N/A   Clear
7:35 AM 53.6 °F 39.7 °F 59% 29.89 in 10.0 mi East 13.8 mph 20.7 mph N/A   Clear
7:55 AM 54.9 °F 40.5 °F 58% 29.90 in 10.0 mi East 12.7 mph 23.0 mph N/A   Clear
8:15 AM 56.3 °F 40.6 °F 56% 29.91 in 10.0 mi East 13.8 mph - N/A   Clear
8:35 AM 57.2 °F 40.5 °F 54% 29.92 in 10.0 mi East 21.9 mph 26.5 mph N/A   Clear
8:55 AM 58.3 °F 40.5 °F 52% 29.91 in 10.0 mi East 18.4 mph 25.3 mph N/A   Clear
9:15 AM 60.1 °F 41.2 °F 50% 29.91 in 10.0 mi East 18.4 mph 25.3 mph N/A   Clear
9:35 AM 59.5 °F 40.5 °F 49% 29.91 in 10.0 mi ENE 19.6 mph 28.8 mph N/A   Clear
9:55 AM 61.3 °F 40.6 °F 47% 29.89 in 10.0 mi East 21.9 mph 28.8 mph N/A   Clear
10:15 AM 62.2 °F 39.7 °F 44% 29.90 in 10.0 mi East 18.4 mph 26.5 mph N/A   Clear
10:35 AM 63.1 °F 40.1 °F 43% 29.90 in 10.0 mi ENE 20.7 mph 26.5 mph N/A   Clear
10:55 AM 63.5 °F 40.3 °F 43% 29.90 in 10.0 mi East 20.7 mph 26.5 mph N/A   Clear
11:15 AM 63.0 °F 40.1 °F 43% 29.90 in 10.0 mi East 18.4 mph 26.5 mph N/A   Clear
11:35 AM 63.9 °F 40.3 °F 42% 29.89 in 10.0 mi ENE 24.2 mph 33.4 mph N/A   Clear
11:55 AM 65.3 °F 40.3 °F 40% 29.89 in 10.0 mi East 21.9 mph 29.9 mph N/A   Clear
12:15 PM 66.0 °F 40.8 °F 40% 29.89 in 10.0 mi East 18.4 mph 26.5 mph N/A   Clear
12:35 PM 66.7 °F 41.0 °F 39% 29.87 in 10.0 mi East 20.7 mph 27.6 mph N/A   Clear
12:55 PM 67.5 °F 40.8 °F 38% 29.88 in 10.0 mi East 17.3 mph 25.3 mph N/A   Clear
1:15 PM 67.8 °F 41.4 °F 38% 29.87 in 10.0 mi East 16.1 mph 28.8 mph N/A   Clear
1:35 PM 68.5 °F 41.4 °F 37% 29.87 in 10.0 mi East 19.6 mph 25.3 mph N/A   Clear
1:55 PM 69.1 °F 41.5 °F 37% 29.86 in 10.0 mi East 17.3 mph 25.3 mph N/A   Clear
2:15 PM 70.0 °F 42.8 °F 37% 29.86 in 10.0 mi ESE 13.8 mph 23.0 mph N/A   Clear
2:35 PM 69.8 °F 42.8 °F 38% 29.85 in 10.0 mi East 17.3 mph 23.0 mph N/A   Clear
2:55 PM 70.7 °F 42.3 °F 36% 29.84 in 10.0 mi ESE 18.4 mph 23.0 mph N/A   Clear
3:15 PM 70.3 °F 43.3 °F 38% 29.84 in 10.0 mi East 16.1 mph 21.9 mph N/A   Clear
3:35 PM 71.2 °F 43.2 °F 36% 29.82 in 10.0 mi East 18.4 mph 21.9 mph N/A   Clear
3:55 PM 70.7 °F 43.2 °F 37% 29.81 in 10.0 mi ESE 17.3 mph 26.5 mph N/A   Clear
4:15 PM 71.6 °F 43.9 °F 37% 29.81 in 10.0 mi East 12.7 mph - N/A   Clear
4:35 PM 71.8 °F 43.9 °F 37% 29.81 in 10.0 mi ESE 13.8 mph 21.9 mph N/A   Clear
4:55 PM 72.1 °F 45.0 °F 38% 29.82 in 10.0 mi ESE 11.5 mph 18.4 mph N/A   Clear
5:15 PM 71.8 °F 44.4 °F 37% 29.81 in 10.0 mi East 15.0 mph 21.9 mph N/A   Clear
5:35 PM 72.0 °F 44.2 °F 37% 29.80 in 10.0 mi East 16.1 mph 19.6 mph N/A   Clear
5:55 PM 71.6 °F 44.2 °F 37% 29.80 in 10.0 mi East 11.5 mph 18.4 mph N/A   Clear
6:15 PM 71.6 °F 44.6 °F 38% 29.79 in 10.0 mi East 16.1 mph 20.7 mph N/A   Clear
6:35 PM 71.6 °F 45.1 °F 39% 29.78 in 10.0 mi East 17.3 mph - N/A   Clear
6:55 PM 71.6 °F 44.8 °F 38% 29.77 in 10.0 mi East 16.1 mph - N/A   Clear
7:15 PM 70.3 °F 44.6 °F 40% 29.76 in 10.0 mi East 16.1 mph - N/A   Clear
7:35 PM 68.2 °F 44.4 °F 42% 29.76 in 10.0 mi East 17.3 mph 20.7 mph N/A   Clear
7:55 PM 67.1 °F 44.6 °F 44% 29.76 in 10.0 mi East 12.7 mph 17.3 mph N/A   Clear
8:15 PM 65.8 °F 44.6 °F 46% 29.77 in 10.0 mi East 11.5 mph - N/A   Clear
8:35 PM 65.3 °F 44.4 °F 47% 29.78 in 10.0 mi East 15.0 mph 19.6 mph N/A   Clear
8:55 PM 64.6 °F 43.9 °F 47% 29.78 in 10.0 mi East 13.8 mph - N/A   Clear
9:15 PM 63.9 °F 44.1 °F 49% 29.79 in 10.0 mi East 13.8 mph 18.4 mph N/A   Clear
9:35 PM 62.8 °F 44.1 °F 50% 29.79 in 10.0 mi ENE 11.5 mph - N/A   Clear
9:55 PM 61.7 °F 43.9 °F 52% 29.79 in 10.0 mi East 10.4 mph - N/A   Clear
10:15 PM 61.3 °F 43.9 °F 53% 29.79 in 10.0 mi East 12.7 mph 18.4 mph N/A   Clear
10:35 PM 60.4 °F 43.3 °F 53% 29.79 in 10.0 mi East 13.8 mph - N/A   Clear
10:55 PM 60.1 °F 43.3 °F 54% 29.79 in 10.0 mi ENE 11.5 mph - N/A   Clear
11:15 PM 59.0 °F 43.5 °F 56% 29.78 in 10.0 mi East 12.7 mph - N/A   Clear
11:35 PM 58.5 °F 43.3 °F 57% 29.77 in 10.0 mi ENE 11.5 mph - N/A   Clear
11:55 PM 57.6 °F 43.2 °F 59% 29.78 in 10.0 mi NE 10.4 mph - N/A   Clear